Time,TemperatureF,DewpointF,PressureIn,WindDirection,WindDirectionDegrees,WindSpeedMPH,WindSpeedGustMPH,Humidity,HourlyPrecipIn,Conditions,Clouds,dailyrainin,SolarRadiationWatts/m^2,SoftwareType,DateUTC
2013-08-20 00:05:00,68.1,63.1,30.08,NNW,329,0.0,0.0,84,0.00,,---,0.00,0.00,VWS V14.01,2013-08-20 04:05:00,
2013-08-20 00:10:00,68.0,63.0,30.08,NNW,329,0.0,0.0,84,0.00,,---,0.00,0.00,VWS V14.01,2013-08-20 04:10:00,
2013-08-20 00:15:00,67.9,62.9,30.08,NNW,329,0.0,0.0,84,0.00,,---,0.00,0.00,VWS V14.01,2013-08-20 04:15:00,
2013-08-20 00:20:00,67.6,62.9,30.08,NNW,329,0.0,0.0,85,0.00,,---,0.00,0.00,VWS V14.01,2013-08-20 04:20:00,
2013-08-20 00:25:00,67.6,62.9,30.08,NNW,329,0.0,0.0,85,0.00,,---,0.00,0.00,VWS V14.01,2013-08-20 04:25:00,
2013-08-20 00:30:00,67.6,62.9,30.08,NNW,329,0.0,0.0,85,0.00,,---,0.00,0.00,VWS V14.01,2013-08-20 04:30:00,
2013-08-20 00:45:00,67.5,63.5,30.08,NNW,329,0.0,0.0,87,0.00,,---,0.00,0.00,VWS V14.01,2013-08-20 04:45:00,
2013-08-20 00:55:00,67.3,63.6,30.08,NNW,329,0.0,0.0,88,0.00,,---,0.00,0.00,VWS V14.01,2013-08-20 04:55:00,
2013-08-20 01:05:00,67.4,63.7,30.08,NNW,329,0.0,0.0,88,0.00,,---,0.00,0.00,VWS V14.01,2013-08-20 05:05:00,
2013-08-20 01:10:00,67.4,63.7,30.08,NNW,329,0.0,0.0,88,0.00,,---,0.00,0.00,VWS V14.01,2013-08-20 05:10:00,
2013-08-20 01:20:00,67.0,63.7,30.08,NNW,329,0.0,0.0,89,0.00,,---,0.00,0.00,VWS V14.01,2013-08-20 05:20:00,
2013-08-20 01:30:00,66.6,63.6,30.08,NNW,329,0.0,0.0,90,0.00,,---,0.00,0.00,VWS V14.01,2013-08-20 05:30:00,
2013-08-20 01:35:00,66.4,63.7,30.08,NNW,329,0.0,0.0,91,0.00,,---,0.00,0.00,VWS V14.01,2013-08-20 05:35:00,
2013-08-20 01:40:00,66.2,63.5,30.08,NNW,329,0.0,0.0,91,0.00,,---,0.00,0.00,VWS V14.01,2013-08-20 05:40:00,
2013-08-20 01:50:00,66.4,64.0,30.08,NNW,329,0.0,0.0,92,0.00,,---,0.00,0.00,VWS V14.01,2013-08-20 05:50:00,
2013-08-20 01:55:00,66.4,64.0,30.08,NNW,329,0.0,0.0,92,0.00,,---,0.00,0.00,VWS V14.01,2013-08-20 05:55:00,
2013-08-20 02:00:00,66.3,63.9,30.08,NNW,329,0.0,0.0,92,0.00,,---,0.00,0.00,VWS V14.01,2013-08-20 06:00:00,
2013-08-20 02:05:00,66.2,63.8,30.08,NNW,329,0.0,0.0,92,0.00,,---,0.00,0.00,VWS V14.01,2013-08-20 06:05:00,
2013-08-20 02:20:00,65.6,63.5,30.08,NNW,329,0.0,0.0,93,0.00,,---,0.00,0.00,VWS V14.01,2013-08-20 06:20:00,
2013-08-20 02:30:00,65.1,63.0,30.08,NNW,329,0.0,0.0,93,0.00,,---,0.00,0.00,VWS V14.01,2013-08-20 06:30:00,
2013-08-20 02:40:00,64.9,63.1,30.08,NNW,329,0.0,0.0,94,0.00,,---,0.00,0.00,VWS V14.01,2013-08-20 06:40:00,
2013-08-20 02:50:00,64.5,62.7,30.08,NNW,329,0.0,0.0,94,0.00,,---,0.00,0.00,VWS V14.01,2013-08-20 06:50:00,
2013-08-20 02:55:00,64.4,62.9,30.08,NNW,329,0.0,0.0,95,0.00,,---,0.00,0.00,VWS V14.01,2013-08-20 06:55:00,
2013-08-20 03:00:00,64.4,62.9,30.08,NNW,329,0.0,0.0,95,0.00,,---,0.00,0.00,VWS V14.01,2013-08-20 07:00:00,
2013-08-20 03:05:00,64.5,63.3,30.08,NNW,329,0.0,0.0,96,0.00,,---,0.00,0.00,VWS V14.01,2013-08-20 07:05:00,
2013-08-20 03:15:00,64.5,63.3,30.08,NNW,329,0.0,0.0,96,0.00,,---,0.00,0.00,VWS V14.01,2013-08-20 07:15:00,
2013-08-20 03:25:00,64.5,63.3,30.08,NNW,330,0.0,0.0,96,0.00,,---,0.00,0.00,VWS V14.01,2013-08-20 07:25:00,
2013-08-20 03:30:00,64.6,63.4,30.08,NNW,330,0.0,0.0,96,0.00,,---,0.00,0.00,VWS V14.01,2013-08-20 07:30:00,
2013-08-20 03:40:00,64.7,63.5,30.08,NNW,346,0.0,0.0,96,0.00,,---,0.00,0.00,VWS V14.01,2013-08-20 07:40:00,
2013-08-20 03:50:00,64.7,63.5,30.08,NNW,346,0.0,0.0,96,0.00,,---,0.00,0.00,VWS V14.01,2013-08-20 07:50:00,
2013-08-20 04:00:00,64.6,63.4,30.08,NNW,346,0.0,0.0,96,0.00,,---,0.00,0.00,VWS V14.01,2013-08-20 08:00:00,
2013-08-20 04:10:00,65.0,64.1,30.08,NNW,346,0.0,0.0,97,0.00,,---,0.00,0.00,VWS V14.01,2013-08-20 08:10:00,
2013-08-20 04:31:00,65.4,64.5,30.08,North,0,0.0,0.0,97,0.00,,---,0.00,0.00,VWS V14.01,2013-08-20 08:31:00,
2013-08-20 04:40:00,65.4,64.5,30.08,NNW,346,0.0,0.0,97,0.00,,---,0.00,0.00,VWS V14.01,2013-08-20 08:40:00,
2013-08-20 04:50:00,65.3,64.4,30.08,NNW,346,0.0,0.0,97,0.00,,---,0.00,0.00,VWS V14.01,2013-08-20 08:50:00,
2013-08-20 04:55:00,65.3,64.4,30.08,NNW,346,0.0,0.0,97,0.00,,---,0.00,0.00,VWS V14.01,2013-08-20 08:55:00,
2013-08-20 05:00:00,65.4,64.5,30.08,NNW,346,0.0,0.0,97,0.00,,---,0.00,0.00,VWS V14.01,2013-08-20 09:00:00,
2013-08-20 05:05:00,65.3,64.4,30.08,NNW,346,0.0,0.0,97,0.00,,---,0.00,0.00,VWS V14.01,2013-08-20 09:05:00,
2013-08-20 05:10:00,65.2,64.3,30.08,NNW,346,0.0,0.0,97,0.00,,---,0.00,0.00,VWS V14.01,2013-08-20 09:10:00,
2013-08-20 05:20:00,65.2,64.3,30.08,NNW,346,0.0,0.0,97,0.00,,---,0.00,0.00,VWS V14.01,2013-08-20 09:20:00,
2013-08-20 05:30:00,65.3,64.4,30.08,NNW,346,0.0,0.0,97,0.00,,---,0.00,0.00,VWS V14.01,2013-08-20 09:30:00,
2013-08-20 05:35:00,65.3,64.7,30.08,NNW,346,0.0,0.0,98,0.00,,---,0.00,0.00,VWS V14.01,2013-08-20 09:35:00,
2013-08-20 05:40:00,65.5,64.9,30.08,NNW,346,0.0,0.0,98,0.00,,---,0.00,0.00,VWS V14.01,2013-08-20 09:40:00,
2013-08-20 05:45:00,65.4,64.8,30.08,NNW,346,0.0,0.0,98,0.00,,---,0.00,0.00,VWS V14.01,2013-08-20 09:45:00,
2013-08-20 05:50:00,65.0,64.1,30.08,NNW,346,0.0,0.0,97,0.00,,---,0.00,0.00,VWS V14.01,2013-08-20 09:50:00,
2013-08-20 05:55:00,65.0,64.1,30.08,NNW,346,0.0,0.0,97,0.00,,---,0.00,0.00,VWS V14.01,2013-08-20 09:55:00,
2013-08-20 06:10:00,65.1,64.5,30.08,NNW,346,0.0,0.0,98,0.00,,---,0.00,0.00,VWS V14.01,2013-08-20 10:10:00,
2013-08-20 06:15:00,65.2,64.6,30.08,NNW,346,0.0,0.0,98,0.00,,---,0.00,0.00,VWS V14.01,2013-08-20 10:15:00,
2013-08-20 06:20:00,65.1,64.5,30.08,NNW,346,0.0,0.0,98,0.00,,---,0.00,0.00,VWS V14.01,2013-08-20 10:20:00,
2013-08-20 06:25:00,64.9,64.3,30.08,NNW,346,0.0,0.0,98,0.00,,---,0.00,0.00,VWS V14.01,2013-08-20 10:25:00,
2013-08-20 06:35:00,64.6,63.7,30.09,NNW,346,0.0,0.0,97,0.00,,---,0.00,0.00,VWS V14.01,2013-08-20 10:35:00,
2013-08-20 06:45:00,64.4,63.5,30.09,NNW,346,0.0,0.0,97,0.00,,---,0.00,0.00,VWS V14.01,2013-08-20 10:45:00,
2013-08-20 06:50:00,64.1,63.2,30.09,NNW,346,0.0,0.0,97,0.00,,---,0.00,0.00,VWS V14.01,2013-08-20 10:50:00,
2013-08-20 07:00:00,63.8,62.9,30.10,NNW,346,0.0,0.0,97,0.00,,---,0.00,0.00,VWS V14.01,2013-08-20 11:00:00,
2013-08-20 07:05:00,63.5,62.6,30.10,NNW,346,0.0,0.0,97,0.00,,---,0.00,5.00,VWS V14.01,2013-08-20 11:05:00,
2013-08-20 07:10:00,63.5,62.6,30.10,NNW,346,0.0,0.0,97,0.00,,---,0.00,7.00,VWS V14.01,2013-08-20 11:10:00,
2013-08-20 07:15:00,63.4,62.5,30.10,NNW,346,0.0,1.0,97,0.00,,---,0.00,11.00,VWS V14.01,2013-08-20 11:15:00,
2013-08-20 07:25:00,63.5,62.9,30.10,NNW,346,0.0,0.0,98,0.00,,---,0.00,18.00,VWS V14.01,2013-08-20 11:25:00,
2013-08-20 07:30:00,63.8,63.2,30.11,NNW,346,0.0,1.0,98,0.00,,---,0.00,21.00,VWS V14.01,2013-08-20 11:30:00,
2013-08-20 07:35:00,64.3,63.7,30.11,NNW,346,0.0,1.0,98,0.00,,---,0.00,25.00,VWS V14.01,2013-08-20 11:35:00,
2013-08-20 07:45:00,65.0,64.4,30.11,NNW,347,0.0,0.0,98,0.00,,---,0.00,32.00,VWS V14.01,2013-08-20 11:45:00,
2013-08-20 07:50:00,65.3,64.7,30.11,NNW,346,0.0,0.0,98,0.00,,---,0.00,35.00,VWS V14.01,2013-08-20 11:50:00,
2013-08-20 07:55:00,65.5,64.9,30.12,NNW,346,0.0,0.0,98,0.00,,---,0.00,44.00,VWS V14.01,2013-08-20 11:55:00,
2013-08-20 08:05:00,65.4,64.8,30.12,NNW,346,0.0,0.0,98,0.00,,---,0.00,65.00,VWS V14.01,2013-08-20 12:05:00,
2013-08-20 08:10:00,65.8,65.2,30.12,NNW,346,0.0,0.0,98,0.00,,---,0.00,69.00,VWS V14.01,2013-08-20 12:10:00,
2013-08-20 08:15:00,65.7,64.8,30.12,NNW,346,0.0,0.0,97,0.00,,---,0.00,72.00,VWS V14.01,2013-08-20 12:15:00,
2013-08-20 08:20:00,66.5,65.9,30.12,NNW,346,0.0,1.0,98,0.00,,---,0.00,74.00,VWS V14.01,2013-08-20 12:20:00,
2013-08-20 08:25:00,67.0,66.1,30.12,NNW,346,0.0,0.0,97,0.00,,---,0.00,67.00,VWS V14.01,2013-08-20 12:25:00,
2013-08-20 08:30:00,67.5,66.6,30.12,NNW,346,0.0,1.0,97,0.00,,---,0.00,65.00,VWS V14.01,2013-08-20 12:30:00,
2013-08-20 08:35:00,67.9,66.7,30.12,NNW,347,1.0,2.0,96,0.00,,---,0.00,74.00,VWS V14.01,2013-08-20 12:35:00,
2013-08-20 08:40:00,68.4,67.2,30.13,North,11,0.0,2.0,96,0.00,,---,0.00,72.00,VWS V14.01,2013-08-20 12:40:00,
2013-08-20 08:45:00,68.8,67.3,30.13,NNE,16,0.0,1.0,95,0.00,,---,0.00,76.00,VWS V14.01,2013-08-20 12:45:00,
2013-08-20 08:56:00,69.8,67.4,30.13,NE,36,0.0,3.0,92,0.00,,---,0.00,88.00,VWS V14.01,2013-08-20 12:56:00,
2013-08-20 09:05:00,69.3,67.5,30.13,NE,36,0.0,0.0,94,0.00,,---,0.00,114.00,VWS V14.01,2013-08-20 13:05:00,
2013-08-20 09:10:00,69.2,67.4,30.13,NE,36,1.0,2.0,94,0.00,,---,0.00,271.00,VWS V14.01,2013-08-20 13:10:00,
2013-08-20 09:15:00,69.7,67.9,30.13,NE,36,0.0,2.0,94,0.00,,---,0.00,297.00,VWS V14.01,2013-08-20 13:15:00,
2013-08-20 09:20:00,70.2,68.4,30.13,NE,36,0.0,1.0,94,0.00,,---,0.00,236.00,VWS V14.01,2013-08-20 13:20:00,
2013-08-20 09:25:00,70.3,68.2,30.13,NE,36,0.0,0.0,93,0.00,,---,0.00,100.00,VWS V14.01,2013-08-20 13:25:00,
2013-08-20 09:30:00,70.5,68.1,30.13,NE,36,0.0,0.0,92,0.00,,---,0.00,95.00,VWS V14.01,2013-08-20 13:30:00,
2013-08-20 09:35:00,70.9,68.8,30.13,NE,36,0.0,1.0,93,0.00,,---,0.00,90.00,VWS V14.01,2013-08-20 13:35:00,
2013-08-20 09:40:00,71.1,68.7,30.13,NE,36,0.0,0.0,92,0.00,,---,0.00,118.00,VWS V14.01,2013-08-20 13:40:00,
2013-08-20 09:50:00,72.2,69.1,30.13,NE,36,0.0,0.0,90,0.00,,---,0.00,144.00,VWS V14.01,2013-08-20 13:50:00,
2013-08-20 09:55:00,72.6,69.2,30.13,NE,36,0.0,1.0,89,0.00,,---,0.00,104.00,VWS V14.01,2013-08-20 13:55:00,
2013-08-20 10:00:00,73.1,69.7,30.13,NE,36,0.0,1.0,89,0.00,,---,0.00,90.00,VWS V14.01,2013-08-20 14:00:00,
2013-08-20 10:05:00,73.3,69.9,30.14,ENE,75,0.0,1.0,89,0.00,,---,0.00,95.00,VWS V14.01,2013-08-20 14:05:00,
2013-08-20 10:15:00,73.9,69.8,30.13,ENE,75,0.0,1.0,87,0.00,,---,0.00,105.00,VWS V14.01,2013-08-20 14:15:00,
2013-08-20 10:20:00,74.4,69.9,30.13,ESE,108,0.0,1.0,86,0.00,,---,0.00,141.00,VWS V14.01,2013-08-20 14:20:00,
2013-08-20 10:30:00,74.7,70.6,30.13,ESE,117,0.0,1.0,87,0.00,,---,0.00,399.00,VWS V14.01,2013-08-20 14:30:00,
2013-08-20 10:35:00,75.0,70.2,30.14,West,268,2.0,3.0,85,0.00,,---,0.00,497.00,VWS V14.01,2013-08-20 14:35:00,
2013-08-20 10:40:00,75.9,71.1,30.14,West,275,0.0,2.0,85,0.00,,---,0.00,526.00,VWS V14.01,2013-08-20 14:40:00,
2013-08-20 10:45:00,76.4,71.2,30.14,West,275,0.0,1.0,84,0.00,,---,0.00,543.00,VWS V14.01,2013-08-20 14:45:00,
2013-08-20 10:50:00,76.7,71.2,30.14,North,355,0.0,3.0,83,0.00,,---,0.00,566.00,VWS V14.01,2013-08-20 14:50:00,
2013-08-20 11:00:00,77.6,70.6,30.14,NE,54,0.0,2.0,79,0.00,,---,0.00,533.00,VWS V14.01,2013-08-20 15:00:00,
2013-08-20 11:10:00,78.6,71.6,30.14,ENE,65,0.0,2.0,79,0.00,,---,0.00,603.00,VWS V14.01,2013-08-20 15:10:00,
2013-08-20 11:15:00,78.7,72.8,30.14,NW,306,0.0,2.0,82,0.00,,---,0.00,613.00,VWS V14.01,2013-08-20 15:15:00,
2013-08-20 11:20:00,79.2,71.0,30.14,SE,139,0.0,5.0,76,0.00,,---,0.00,652.00,VWS V14.01,2013-08-20 15:20:00,
2013-08-20 11:25:00,79.2,69.0,30.14,NE,36,3.0,5.0,71,0.00,,---,0.00,613.00,VWS V14.01,2013-08-20 15:25:00,
2013-08-20 11:30:00,79.4,69.2,30.14,WSW,252,0.0,3.0,71,0.00,,---,0.00,661.00,VWS V14.01,2013-08-20 15:30:00,
2013-08-20 11:35:00,79.4,69.6,30.14,NNW,329,0.0,1.0,72,0.00,,---,0.00,682.00,VWS V14.01,2013-08-20 15:35:00,
2013-08-20 11:40:00,79.7,69.5,30.14,NW,309,1.0,2.0,71,0.00,,---,0.00,686.00,VWS V14.01,2013-08-20 15:40:00,
2013-08-20 11:45:00,79.3,68.7,30.14,NW,304,0.0,1.0,70,0.00,,---,0.00,693.00,VWS V14.01,2013-08-20 15:45:00,
2013-08-20 12:00:00,81.4,69.0,30.14,ESE,107,1.0,4.0,66,0.00,,---,0.00,717.00,VWS V14.01,2013-08-20 16:00:00,
2013-08-20 12:05:00,81.0,68.6,30.14,NE,53,3.0,3.0,66,0.00,,---,0.00,722.00,VWS V14.01,2013-08-20 16:05:00,
2013-08-20 12:10:00,81.4,70.3,30.14,ENE,61,1.0,3.0,69,0.00,,---,0.00,744.00,VWS V14.01,2013-08-20 16:10:00,
2013-08-20 12:15:00,81.6,69.2,30.14,NE,49,4.0,4.0,66,0.00,,---,0.00,747.00,VWS V14.01,2013-08-20 16:15:00,
2013-08-20 12:20:00,81.1,67.8,30.14,ENE,63,0.0,5.0,64,0.00,,---,0.00,761.00,VWS V14.01,2013-08-20 16:20:00,
2013-08-20 12:25:00,81.5,67.7,30.14,ENE,60,0.0,7.0,63,0.00,,---,0.00,758.00,VWS V14.01,2013-08-20 16:25:00,
2013-08-20 12:35:00,81.9,68.1,30.14,ENE,67,0.0,4.0,63,0.00,,---,0.00,763.00,VWS V14.01,2013-08-20 16:35:00,
2013-08-20 12:45:00,81.7,67.4,30.13,East,83,0.0,5.0,62,0.00,,---,0.00,793.00,VWS V14.01,2013-08-20 16:45:00,
2013-08-20 12:50:00,81.6,67.8,30.13,SW,236,1.0,3.0,63,0.00,,---,0.00,793.00,VWS V14.01,2013-08-20 16:50:00,
2013-08-20 12:55:00,82.3,68.9,30.14,NE,55,1.0,3.0,64,0.00,,---,0.00,798.00,VWS V14.01,2013-08-20 16:55:00,
2013-08-20 13:00:00,82.3,68.5,30.13,South,188,0.0,3.0,63,0.00,,---,0.00,793.00,VWS V14.01,2013-08-20 17:00:00,
2013-08-20 13:05:00,82.5,68.2,30.13,NNE,32,1.0,4.0,62,0.00,,---,0.00,807.00,VWS V14.01,2013-08-20 17:05:00,
2013-08-20 13:15:00,82.1,66.4,30.13,ESE,118,0.0,3.0,59,0.00,,---,0.00,772.00,VWS V14.01,2013-08-20 17:15:00,
2013-08-20 13:20:00,82.1,67.8,30.13,North,355,0.0,9.0,62,0.00,,---,0.00,826.00,VWS V14.01,2013-08-20 17:20:00,
2013-08-20 13:31:00,83.0,68.2,30.13,SW,217,0.0,3.0,61,0.00,,---,0.00,865.00,VWS V14.01,2013-08-20 17:31:00,
2013-08-20 13:40:00,83.1,68.7,30.12,SSW,198,1.0,3.0,62,0.00,,---,0.00,833.00,VWS V14.01,2013-08-20 17:40:00,
2013-08-20 13:45:00,83.0,67.7,30.12,East,80,0.0,2.0,60,0.00,,---,0.00,893.00,VWS V14.01,2013-08-20 17:45:00,
2013-08-20 13:50:00,84.0,68.1,30.12,ENE,59,4.0,5.0,59,0.00,,---,0.00,863.00,VWS V14.01,2013-08-20 17:50:00,
2013-08-20 14:00:00,83.7,67.9,30.11,NE,49,3.0,8.0,59,0.00,,---,0.00,895.00,VWS V14.01,2013-08-20 18:00:00,
2013-08-20 14:05:00,83.9,68.5,30.11,East,86,0.0,3.0,60,0.00,,---,0.00,911.00,VWS V14.01,2013-08-20 18:05:00,
2013-08-20 14:10:00,84.2,66.8,30.11,West,267,0.0,2.0,56,0.00,,---,0.00,893.00,VWS V14.01,2013-08-20 18:10:00,
2013-08-20 14:20:00,83.9,68.5,30.11,WNW,291,1.0,2.0,60,0.00,,---,0.00,863.00,VWS V14.01,2013-08-20 18:20:00,
2013-08-20 14:30:00,84.1,66.7,30.10,South,173,0.0,3.0,56,0.00,,---,0.00,805.00,VWS V14.01,2013-08-20 18:30:00,
2013-08-20 14:35:00,84.2,66.8,30.10,SW,221,1.0,4.0,56,0.00,,---,0.00,835.00,VWS V14.01,2013-08-20 18:35:00,
2013-08-20 14:45:00,83.9,69.5,30.10,WSW,240,1.0,3.0,62,0.00,,---,0.00,831.00,VWS V14.01,2013-08-20 18:45:00,
2013-08-20 14:50:00,83.9,66.5,30.10,WSW,254,2.0,4.0,56,0.00,,---,0.00,837.00,VWS V14.01,2013-08-20 18:50:00,
2013-08-20 14:55:00,83.8,68.0,30.10,SSE,159,0.0,3.0,59,0.00,,---,0.00,826.00,VWS V14.01,2013-08-20 18:55:00,
2013-08-20 15:05:00,84.7,67.3,30.09,ENE,58,5.0,7.0,56,0.00,,---,0.00,814.00,VWS V14.01,2013-08-20 19:05:00,
2013-08-20 15:10:00,84.0,66.1,30.09,ENE,59,2.0,5.0,55,0.00,,---,0.00,854.00,VWS V14.01,2013-08-20 19:10:00,
2013-08-20 15:20:00,84.5,66.6,30.09,WNW,301,0.0,5.0,55,0.00,,---,0.00,828.00,VWS V14.01,2013-08-20 19:20:00,
2013-08-20 15:25:00,84.0,67.7,30.08,ENE,69,0.0,2.0,58,0.00,,---,0.00,782.00,VWS V14.01,2013-08-20 19:25:00,
2013-08-20 15:35:00,84.5,66.1,30.08,ENE,57,1.0,4.0,54,0.00,,---,0.00,798.00,VWS V14.01,2013-08-20 19:35:00,
2013-08-20 15:40:00,85.4,68.4,30.08,SSW,211,1.0,5.0,57,0.00,,---,0.00,780.00,VWS V14.01,2013-08-20 19:40:00,
2013-08-20 15:45:00,84.6,65.6,30.08,South,180,0.0,6.0,53,0.00,,---,0.00,745.00,VWS V14.01,2013-08-20 19:45:00,
2013-08-20 15:55:00,83.9,67.6,30.07,NE,55,1.0,4.0,58,0.00,,---,0.00,624.00,VWS V14.01,2013-08-20 19:55:00,
2013-08-20 16:00:00,83.9,68.5,30.07,WSW,249,1.0,2.0,60,0.00,,---,0.00,721.00,VWS V14.01,2013-08-20 20:00:00,
2013-08-20 16:10:00,84.5,70.1,30.07,WSW,243,0.0,2.0,62,0.00,,---,0.00,721.00,VWS V14.01,2013-08-20 20:10:00,
2013-08-20 16:15:00,84.5,66.6,30.07,ESE,103,1.0,5.0,55,0.00,,---,0.00,698.00,VWS V14.01,2013-08-20 20:15:00,
2013-08-20 16:20:00,84.2,67.8,30.07,East,87,0.0,5.0,58,0.00,,---,0.00,687.00,VWS V14.01,2013-08-20 20:20:00,
2013-08-20 16:35:00,83.7,69.8,30.07,SW,215,1.0,5.0,63,0.00,,---,0.00,635.00,VWS V14.01,2013-08-20 20:35:00,
2013-08-20 16:40:00,83.9,69.0,30.07,NE,42,4.0,4.0,61,0.00,,---,0.00,550.00,VWS V14.01,2013-08-20 20:40:00,
2013-08-20 16:50:00,83.8,68.4,30.06,ENE,65,2.0,5.0,60,0.00,,---,0.00,415.00,VWS V14.01,2013-08-20 20:50:00,
2013-08-20 17:00:00,82.4,67.6,30.06,NE,49,2.0,3.0,61,0.00,,---,0.00,336.00,VWS V14.01,2013-08-20 21:00:00,
2013-08-20 17:05:00,82.2,66.9,30.06,NE,51,0.0,2.0,60,0.00,,---,0.00,325.00,VWS V14.01,2013-08-20 21:05:00,
2013-08-20 17:15:00,81.7,68.3,30.06,North,360,0.0,2.0,64,0.00,,---,0.00,415.00,VWS V14.01,2013-08-20 21:15:00,
2013-08-20 17:20:00,82.4,69.0,30.06,NNE,30,0.0,2.0,64,0.00,,---,0.00,279.00,VWS V14.01,2013-08-20 21:20:00,
2013-08-20 17:30:00,82.6,68.3,30.06,SW,220,1.0,3.0,62,0.00,,---,0.00,345.00,VWS V14.01,2013-08-20 21:30:00,
2013-08-20 17:40:00,80.9,69.8,30.06,NE,34,0.0,1.0,69,0.00,,---,0.00,130.00,VWS V14.01,2013-08-20 21:40:00,
2013-08-20 17:45:00,80.8,69.3,30.06,NE,34,0.0,0.0,68,0.00,,---,0.00,146.00,VWS V14.01,2013-08-20 21:45:00,
2013-08-20 17:55:00,80.0,69.8,30.06,NE,50,0.0,0.0,71,0.00,,---,0.00,174.00,VWS V14.01,2013-08-20 21:55:00,
2013-08-20 18:00:00,80.1,69.4,30.06,NE,50,0.0,0.0,70,0.00,,---,0.00,114.00,VWS V14.01,2013-08-20 22:00:00,
2013-08-20 18:05:00,79.6,69.8,30.06,NE,50,0.0,0.0,72,0.00,,---,0.00,90.00,VWS V14.01,2013-08-20 22:05:00,
2013-08-20 18:15:00,79.0,69.2,30.05,NE,50,0.0,0.0,72,0.00,,---,0.00,88.00,VWS V14.01,2013-08-20 22:15:00,
2013-08-20 18:20:00,78.8,69.8,30.06,NE,50,0.0,0.0,74,0.00,,---,0.00,90.00,VWS V14.01,2013-08-20 22:20:00,
2013-08-20 18:30:00,78.8,69.8,30.06,NE,50,0.0,0.0,74,0.00,,---,0.00,95.00,VWS V14.01,2013-08-20 22:30:00,
2013-08-20 18:35:00,79.1,70.1,30.06,NE,50,0.0,0.0,74,0.00,,---,0.00,93.00,VWS V14.01,2013-08-20 22:35:00,
2013-08-20 18:40:00,79.1,70.9,30.06,NE,50,0.0,0.0,76,0.00,,---,0.00,95.00,VWS V14.01,2013-08-20 22:40:00,
2013-08-20 18:50:00,79.3,71.1,30.05,NE,50,0.0,0.0,76,0.00,,---,0.00,86.00,VWS V14.01,2013-08-20 22:50:00,
2013-08-20 19:00:00,78.7,70.9,30.05,NE,50,0.0,0.0,77,0.00,,---,0.00,76.00,VWS V14.01,2013-08-20 23:00:00,
2013-08-20 19:05:00,78.4,71.0,30.05,NE,50,0.0,0.0,78,0.00,,---,0.00,69.00,VWS V14.01,2013-08-20 23:05:00,
2013-08-20 19:15:00,78.0,71.3,30.05,NE,50,0.0,1.0,80,0.00,,---,0.00,58.00,VWS V14.01,2013-08-20 23:15:00,
2013-08-20 19:20:00,77.6,70.2,30.06,NE,50,0.0,0.0,78,0.00,,---,0.00,46.00,VWS V14.01,2013-08-20 23:20:00,
2013-08-20 19:35:00,77.2,70.2,30.07,NE,50,0.0,0.0,79,0.00,,---,0.00,33.00,VWS V14.01,2013-08-20 23:35:00,
2013-08-20 19:40:00,77.2,69.4,30.07,NE,50,0.0,0.0,77,0.00,,---,0.00,26.00,VWS V14.01,2013-08-20 23:40:00,
2013-08-20 19:50:00,77.2,69.4,30.07,NE,50,0.0,0.0,77,0.00,,---,0.00,18.00,VWS V14.01,2013-08-20 23:50:00,
2013-08-20 19:55:00,77.0,68.5,30.07,NE,50,0.0,0.0,75,0.00,,---,0.00,11.00,VWS V14.01,2013-08-20 23:55:00,
2013-08-20 20:00:00,76.7,68.6,30.08,NE,50,0.0,0.0,76,0.00,,---,0.00,7.00,VWS V14.01,2013-08-21 00:00:00,
2013-08-20 20:10:00,76.4,69.0,30.07,NE,50,0.0,0.0,78,0.00,,---,0.00,5.00,VWS V14.01,2013-08-21 00:10:00,
2013-08-20 20:15:00,75.9,69.3,30.07,NE,50,0.0,0.0,80,0.00,,---,0.00,0.00,VWS V14.01,2013-08-21 00:15:00,
2013-08-20 20:21:00,75.5,68.9,30.07,NE,50,0.0,0.0,80,0.00,,---,0.00,0.00,VWS V14.01,2013-08-21 00:21:00,
2013-08-20 20:30:00,75.5,69.3,30.07,NE,50,0.0,0.0,81,0.00,,---,0.00,0.00,VWS V14.01,2013-08-21 00:30:00,
2013-08-20 20:35:00,75.3,68.7,30.07,NE,50,0.0,0.0,80,0.00,,---,0.00,0.00,VWS V14.01,2013-08-21 00:35:00,
2013-08-20 20:40:00,75.5,68.5,30.07,NE,50,0.0,0.0,79,0.00,,---,0.00,0.00,VWS V14.01,2013-08-21 00:40:00,
2013-08-20 20:45:00,75.3,68.7,30.07,NE,50,0.0,0.0,80,0.00,,---,0.00,0.00,VWS V14.01,2013-08-21 00:45:00,
2013-08-20 20:50:00,75.2,68.6,30.07,NE,50,0.0,0.0,80,0.00,,---,0.00,0.00,VWS V14.01,2013-08-21 00:50:00,
2013-08-20 21:00:00,74.7,68.5,30.07,NE,50,0.0,0.0,81,0.00,,---,0.00,0.00,VWS V14.01,2013-08-21 01:00:00,
2013-08-20 21:05:00,74.7,68.5,30.07,NE,50,0.0,0.0,81,0.00,,---,0.00,0.00,VWS V14.01,2013-08-21 01:05:00,
2013-08-20 21:15:00,74.5,68.3,30.07,NE,50,0.0,1.0,81,0.00,,---,0.00,0.00,VWS V14.01,2013-08-21 01:15:00,
2013-08-20 21:20:00,74.1,67.9,30.07,NE,50,0.0,0.0,81,0.00,,---,0.00,0.00,VWS V14.01,2013-08-21 01:20:00,
2013-08-20 21:25:00,74.1,67.9,30.07,NE,50,0.0,0.0,81,0.00,,---,0.00,0.00,VWS V14.01,2013-08-21 01:25:00,
2013-08-20 21:30:00,74.2,67.6,30.08,NE,50,0.0,0.0,80,0.00,,---,0.00,0.00,VWS V14.01,2013-08-21 01:30:00,
2013-08-20 21:40:00,74.2,67.3,30.08,NE,50,0.0,0.0,79,0.00,,---,0.00,0.00,VWS V14.01,2013-08-21 01:40:00,
2013-08-20 21:55:00,73.7,67.5,30.08,NE,50,0.0,0.0,81,0.00,,---,0.00,0.00,VWS V14.01,2013-08-21 01:55:00,
2013-08-20 22:00:00,73.5,67.3,30.08,NE,50,0.0,0.0,81,0.00,,---,0.00,0.00,VWS V14.01,2013-08-21 02:00:00,
2013-08-20 22:05:00,73.4,67.2,30.08,NE,50,0.0,0.0,81,0.00,,---,0.00,0.00,VWS V14.01,2013-08-21 02:05:00,
2013-08-20 22:10:00,73.3,67.1,30.09,NE,50,0.0,0.0,81,0.00,,---,0.00,0.00,VWS V14.01,2013-08-21 02:10:00,
2013-08-20 22:15:00,73.4,67.2,30.09,NE,50,0.0,0.0,81,0.00,,---,0.00,0.00,VWS V14.01,2013-08-21 02:15:00,
2013-08-20 22:25:00,73.4,66.9,30.09,NE,50,0.0,0.0,80,0.00,,---,0.00,0.00,VWS V14.01,2013-08-21 02:25:00,
2013-08-20 22:30:00,73.4,66.9,30.09,NE,50,0.0,0.0,80,0.00,,---,0.00,0.00,VWS V14.01,2013-08-21 02:30:00,
2013-08-20 22:35:00,73.3,67.1,30.09,NE,50,0.0,0.0,81,0.00,,---,0.00,0.00,VWS V14.01,2013-08-21 02:35:00,
2013-08-20 22:50:00,73.0,67.5,30.09,NE,50,0.0,0.0,83,0.00,,---,0.00,0.00,VWS V14.01,2013-08-21 02:50:00,
2013-08-20 23:00:00,73.0,67.2,30.09,NE,50,0.0,0.0,82,0.00,,---,0.00,0.00,VWS V14.01,2013-08-21 03:00:00,
2013-08-20 23:06:00,73.1,67.3,30.09,NE,50,0.0,0.0,82,0.00,,---,0.00,0.00,VWS V14.01,2013-08-21 03:06:00,
2013-08-20 23:15:00,72.9,67.1,30.09,NE,50,0.0,0.0,82,0.00,,---,0.00,0.00,VWS V14.01,2013-08-21 03:15:00,
2013-08-20 23:20:00,72.8,67.0,30.09,NE,50,0.0,0.0,82,0.00,,---,0.00,0.00,VWS V14.01,2013-08-21 03:20:00,
2013-08-20 23:35:00,72.4,66.9,30.10,NE,50,0.0,0.0,83,0.00,,---,0.00,0.00,VWS V14.01,2013-08-21 03:35:00,
2013-08-20 23:45:00,72.4,66.9,30.10,NE,50,0.0,0.0,83,0.00,,---,0.00,0.00,VWS V14.01,2013-08-21 03:45:00,
2013-08-20 23:55:00,72.4,66.9,30.10,NE,50,0.0,0.0,83,0.00,,---,0.00,0.00,VWS V14.01,2013-08-21 03:55:00,